TimeCDT,TemperatureF,Dew PointF,Humidity,Sea Level PressureIn,VisibilityMPH,Wind Direction,Wind SpeedMPH,Gust SpeedMPH,PrecipitationIn,Events,Conditions,WindDirDegrees,DateUTC
12:56 AM,52.9,52.9,100,29.96,5.0,Calm,Calm,-,N/A,,Overcast,0,2013-04-29 05:56:00
1:56 AM,54.9,54.9,100,29.96,5.0,South,4.6,-,N/A,,Overcast,170,2013-04-29 06:56:00
2:56 AM,54.9,54.9,100,29.96,4.0,SSE,4.6,-,N/A,,Overcast,150,2013-04-29 07:56:00
3:56 AM,54.9,54.9,100,29.96,4.0,Calm,Calm,-,N/A,,Overcast,0,2013-04-29 08:56:00
4:56 AM,54.9,54.9,100,29.98,4.0,South,3.5,-,N/A,,Overcast,180,2013-04-29 09:56:00
5:56 AM,54.9,54.9,100,29.99,3.0,Calm,Calm,-,N/A,,Overcast,0,2013-04-29 10:56:00
6:56 AM,55.9,54.9,96,30.01,3.0,Calm,Calm,-,N/A,,Overcast,0,2013-04-29 11:56:00
7:56 AM,56.8,55.9,97,30.02,3.0,South,3.5,-,N/A,,Overcast,190,2013-04-29 12:56:00
8:56 AM,59.0,56.8,93,30.02,4.0,SSW,3.5,-,N/A,,Overcast,210,2013-04-29 13:56:00
9:56 AM,64.9,59.0,81,30.02,8.0,South,8.1,-,N/A,,Mostly Cloudy,180,2013-04-29 14:56:00
10:56 AM,68.9,55.9,63,30.02,10.0,Variable,4.6,-,N/A,,Mostly Cloudy,0,2013-04-29 15:56:00
11:56 AM,70.0,54.9,59,30.01,10.0,South,9.2,-,N/A,,Mostly Cloudy,190,2013-04-29 16:56:00
12:56 PM,70.0,54.9,59,29.99,10.0,SSE,8.1,-,N/A,,Mostly Cloudy,160,2013-04-29 17:56:00
1:56 PM,70.9,54.0,55,29.98,10.0,South,9.2,-,N/A,,Scattered Clouds,170,2013-04-29 18:56:00
2:56 PM,72.0,54.0,53,29.96,10.0,SSW,4.6,-,N/A,,Partly Cloudy,210,2013-04-29 19:56:00
3:56 PM,73.9,54.9,51,29.94,10.0,SSW,9.2,-,N/A,,Partly Cloudy,210,2013-04-29 20:56:00
4:56 PM,73.9,54.0,50,29.92,10.0,SSE,4.6,-,N/A,,Clear,160,2013-04-29 21:56:00
5:56 PM,72.9,52.9,49,29.92,10.0,SSW,6.9,-,N/A,,Clear,200,2013-04-29 22:56:00
6:56 PM,70.9,54.9,57,29.91,10.0,South,4.6,-,N/A,,Clear,180,2013-04-29 23:56:00
7:56 PM,65.8,54.0,65,29.91,10.0,SE,5.8,-,N/A,,Clear,130,2013-04-30 00:56:00
8:56 PM,63.0,54.0,72,29.93,10.0,SE,5.8,-,N/A,,Clear,140,2013-04-30 01:56:00
9:56 PM,61.0,54.0,78,29.94,10.0,SSE,8.1,-,N/A,,Clear,150,2013-04-30 02:56:00
10:56 PM,59.9,54.0,81,29.94,10.0,SSE,6.9,-,N/A,,Clear,160,2013-04-30 03:56:00
11:56 PM,59.0,52.9,80,29.94,10.0,ESE,3.5,-,N/A,,Clear,120,2013-04-30 04:56:00